Bucharest, Romania

11:31 AM EET on February 07, 2016 (GMT +0200)
Bucharest

Weather History for 15420 - April, 2009

Change the Weather History Date:

Thursday, April 9, 2009

  Actual Average Record
Temperature  
Mean Temperature 56 °F -  
Max Temperature 72 °F 67 °F - ()
Min Temperature 40 °F 45 °F - ()
Degree Days  
Heating Degree Days 9    
Growing Degree Days 6 (Base 50)    
Moisture  
Dew Point 41 °F    
Average Humidity 52    
Maximum Humidity 85    
Minimum Humidity 20    
Precipitation  
Precipitation 0.00 in 0.07 in - ()
Sea Level Pressure  
Sea Level Pressure 30.09 in    
Wind  
Wind Speed 4 mph ()    
Max Wind Speed 14 mph    
Max Gust Speed -    
Visibility 6.0 miles    
Events      
T = Trace of Precipitation, MM = Missing Value Source: Averaged Metar Reports

Daily Weather History Graph

Daily Weather History Graph

Search for Another Location

Airport or City:

Trip Planner

Search our weather history database for the weather conditions in past years. The results will help you decide how hot, cold, wet, or windy it might be!

Date:

Astronomy

Apr. 09, 2009 Rise Set
Actual Time 6:42 AM EEST 7:52 PM EEST
Civil Twilight 6:12 AM EEST 8:22 PM EEST
Nautical Twilight 5:36 AM EEST 8:58 PM EEST
Astronomical Twilight 4:58 AM EEST 9:36 PM EEST
Moon 8:05 PM EEST (4/9) 6:08 AM EEST (4/9)
Length of Visible Light 14h 10m
Length of Day
13h 10m
Full, 100% of the Moon is Illuminated
Apr 9
Full
Apr 9
Full
Apr 17
Last Quarter
Apr 25
New
May 1
First Quarter

Hourly Weather History & Observations

Time (EEST) Temp. Dew Point Humidity Pressure Visibility Wind Dir Wind Speed Gust Speed Precip Events Conditions
12:00 AM 53 °F 36 °F 41% 30.07 in 6 mi ENE 2.2 mph - -   Partly Cloudy
12:00 AM 60.8 °F 39.2 °F 45% 30.04 in - Variable 1.2 mph - N/A   Clear
12:30 AM 59.0 °F 39.2 °F 48% 30.04 in - Variable 1.2 mph - N/A   Clear
1:00 AM 48 °F 37 °F 56% 30.07 in 6 mi West 2.2 mph - -   Mostly Cloudy
1:00 AM 55.4 °F 39.2 °F 54% 30.04 in - North 2.3 mph - N/A   Clear
1:30 AM 55.4 °F 39.2 °F 54% 30.04 in - WNW 3.5 mph - N/A   Clear
2:00 AM 47 °F 39 °F 65% 30.08 in 6 mi NW 2.2 mph - -   Partly Cloudy
2:00 AM 53.6 °F 39.2 °F 58% 30.04 in - Calm Calm - N/A   Clear
2:30 AM 53.6 °F 41.0 °F 62% 30.06 in - Calm Calm - N/A   Clear
3:00 AM 52 °F 42 °F 60% 30.09 in 6 mi North 4.5 mph - -   Mostly Cloudy
3:00 AM 51.8 °F 42.8 °F 71% 30.06 in - Calm Calm - N/A   Clear
3:30 AM 51.8 °F 42.8 °F 71% 30.06 in - Variable 1.2 mph - N/A   Clear
4:00 AM 48 °F 42 °F 72% 30.09 in 6 mi NE 2.2 mph - -   Mostly Cloudy
4:00 AM 53.6 °F 42.8 °F 67% 30.04 in - North 4.6 mph - N/A   Clear
4:30 AM 51.8 °F 42.8 °F 71% 30.04 in - NNE 3.5 mph - N/A   Clear
5:00 AM 49 °F 41 °F 66% 30.09 in 6 mi NNE 2.2 mph - -   Mostly Cloudy
5:00 AM 50.0 °F 41.0 °F 71% 30.06 in - Variable 2.3 mph - N/A   Clear
5:30 AM 50.0 °F 41.0 °F 71% 30.06 in - Variable 1.2 mph - N/A   Clear
6:00 AM 46 °F 39 °F 67% 30.10 in 6 mi Calm Calm - -   Scattered Clouds
6:00 AM 50.0 °F 41.0 °F 71% 30.06 in - Calm Calm - N/A   Clear
6:30 AM 50.0 °F 41.0 °F 71% 30.06 in - Calm Calm - N/A   Clear
7:00 AM 42 °F 39 °F 84% 30.12 in 6 mi Calm Calm - -   Partly Cloudy
7:00 AM 48.2 °F 39.2 °F 71% 30.06 in - North 3.5 mph - N/A   Clear
7:30 AM 50.0 °F 39.2 °F 66% 30.09 in - North 5.8 mph - N/A   Clear
8:00 AM 45 °F 42 °F 85% 30.12 in 6 mi North 2.2 mph - -   Partly Cloudy
8:00 AM 50.0 °F 39.2 °F 66% 30.09 in - North 5.8 mph - N/A   Clear
8:30 AM 51.8 °F 37.4 °F 58% 30.09 in - North 5.8 mph - N/A   Clear
9:00 AM 50 °F 38 °F 52% 30.13 in 6 mi North 4.5 mph - -   Scattered Clouds
9:00 AM 51.8 °F 39.2 °F 62% 30.09 in - NNE 6.9 mph - N/A   Clear
9:30 AM 53.6 °F 41.0 °F 62% 30.09 in - NNE 6.9 mph - N/A   Partly Cloudy
10:00 AM 54 °F 38 °F 42% 30.14 in 6 mi NNE 4.5 mph - -   Scattered Clouds
10:00 AM 55.4 °F 39.2 °F 54% 30.09 in - NE 8.1 mph - N/A   Clear
10:30 AM 59.0 °F 39.2 °F 48% 30.09 in - East 12.7 mph - N/A   Clear
11:00 AM 59 °F 35 °F 29% 30.14 in 6 mi East 8.9 mph - -   Partly Cloudy
11:00 AM 60.8 °F 37.4 °F 42% 30.09 in - NNE 6.9 mph - N/A   Clear
11:30 AM 62.6 °F 42.8 °F 48% 30.12 in - North 5.8 mph - N/A   Clear
12:00 PM 61 °F 37 °F 29% 30.15 in 6 mi NE 4.5 mph - -   Partly Cloudy
12:00 PM 62.6 °F 42.8 °F 48% 30.12 in - NNE 5.8 mph - N/A   Clear
12:30 PM 62.6 °F 42.8 °F 48% 30.12 in - NNE 4.6 mph - N/A   Clear
1:00 PM 63 °F 39 °F 30% 30.14 in 6 mi North 4.5 mph - -   Mostly Cloudy
1:00 PM 64.4 °F 42.8 °F 45% 30.12 in - NNE 5.8 mph - N/A   Clear
1:30 PM 64.4 °F 44.6 °F 49% 30.09 in - ENE 6.9 mph - N/A   Clear
2:00 PM 67 °F 42 °F 29% 30.13 in 6 mi ENE 6.7 mph - -   Scattered Clouds
2:00 PM 68.0 °F 44.6 °F 43% 30.09 in - ENE 6.9 mph - N/A   Clear
2:30 PM 68.0 °F 46.4 °F 46% 30.09 in - ESE 5.8 mph - N/A   Clear
3:00 PM 71 °F 42 °F 24% 30.11 in 6 mi East 4.5 mph - -  
3:00 PM 69.8 °F 46.4 °F 43% 30.09 in - ENE 5.8 mph - N/A   Clear
3:30 PM 71.6 °F 44.6 °F 38% 30.06 in - East 4.6 mph - N/A   Clear
4:00 PM 71 °F 41 °F 23% 30.10 in 6 mi SE 4.5 mph - -  
4:30 PM 71.6 °F 44.6 °F 38% 30.06 in - Variable 3.5 mph - N/A   Clear
5:00 PM 72 °F 40 °F 21% 30.08 in 6 mi ENE 4.5 mph - -  
5:00 PM 71.6 °F 42.8 °F 35% 30.06 in - NE 4.6 mph - N/A   Clear
5:30 PM 71.6 °F 42.8 °F 35% 30.06 in - NNE 4.6 mph - N/A   Clear
6:00 PM 71 °F 39 °F 20% 30.08 in 6 mi East 4.5 mph - -   Scattered Clouds
6:00 PM 71.6 °F 42.8 °F 35% 30.06 in - NE 6.9 mph - N/A   Clear
6:30 PM 69.8 °F 46.4 °F 43% 30.06 in - NNE 11.5 mph - N/A   Clear
7:00 PM 68 °F 40 °F 25% 30.09 in 6 mi NNE 8.9 mph - -   Scattered Clouds
7:00 PM 66.2 °F 44.6 °F 46% 30.06 in - NE 13.8 mph - N/A   Clear
7:30 PM 64.4 °F 44.6 °F 49% 30.06 in - NE 10.4 mph - N/A   Clear
8:00 PM 63 °F 39 °F 29% 30.11 in 6 mi ENE 8.9 mph - -   Scattered Clouds
8:00 PM 62.6 °F 46.4 °F 55% 30.06 in - NE 12.7 mph - N/A   Clear
8:30 PM 60.8 °F 44.6 °F 55% 30.06 in - NE 12.7 mph - N/A   Clear
9:00 PM 58 °F 39 °F 38% 30.12 in 6 mi ENE 11.2 mph - -   Scattered Clouds
9:00 PM 57.2 °F 42.8 °F 59% 30.09 in - NE 12.7 mph - N/A   Clear
9:30 PM 55.4 °F 42.8 °F 63% 30.09 in - NE 12.7 mph - N/A   Clear
10:00 PM 54 °F 38 °F 44% 30.13 in 6 mi ENE 11.2 mph - -   Scattered Clouds
10:00 PM 53.6 °F 42.8 °F 67% 30.09 in - NE 10.4 mph - N/A   Clear
10:30 PM 51.8 °F 42.8 °F 71% 30.09 in - NE 8.1 mph - N/A   Clear
11:00 PM 51 °F 39 °F 52% 30.14 in 6 mi ENE 6.7 mph - -   Scattered Clouds
11:00 PM 51.8 °F 41.0 °F 67% 30.09 in - NE 6.9 mph - N/A   Clear
11:30 PM 50.0 °F 41.0 °F 71% 30.09 in - NE 6.9 mph - N/A   Clear